User: anonymous   Login
Location: Dappach
(48.9767°N, 9.6998°E)
Time: 18:38:52
(UTC+00:00)
Language:

Cosmos 1025 Rocket - Orbit

View from above orbital plane
View from above orbital plane
View from above satellite
View from above satellite

Ground track
Ground track

The orbit data is extracted from the following two-line orbital elements,

1 10974U 78067B   24201.84451816  .00001030  00000-0  10741-3 0  9995
2 10974  82.4797 235.3333 0017851  41.9984 318.2598 14.88718487471418
Epoch (UTC): 19 July 2024 20:16:06
Eccentricity: 0.0017851
inclination: 82.4797°
perigee height: 589 km
apogee height: 614 km
right ascension of ascending node: 235.3333°
argument of perigee: 41.9984°
revolutions per day: 14.88718487
mean anomaly at epoch: 318.2598°
orbit number at epoch: 47141

The dashed part of the orbit path shows where the satellite is in the earth's shadow,  

DLR